Change the Weather History Date:

Tuesday, March 25, 2014

  Actual Average Record
Temperature  
Mean Temperature 30 °F -  
Max Temperature 37 °F 54 °F 62 °F (2003)
Min Temperature 24 °F 37 °F 24 °F (2014)
Degree Days  
Heating Degree Days 34    
Moisture  
Dew Point 25 °F    
Average Humidity 79    
Maximum Humidity 100    
Minimum Humidity 55    
Precipitation  
Precipitation 0.00 in - - ()
Sea Level Pressure  
Sea Level Pressure 30.06 in    
Wind  
Wind Speed 1 mph (East)    
Max Wind Speed 12 mph    
Max Gust Speed 17 mph    
Visibility 7 miles    
Events Snow    
Averages and records for this station are not official NWS values.
T = Trace of Precipitation, MM = Missing Value Source: NWS Daily Summary

Daily Weather History Graph

Daily Weather History Graph

Search for Another Location

Airport or City:

Trip Planner

Search our weather history database for the weather conditions in past years. The results will help you decide how hot, cold, wet, or windy it might be!

Date:

Astronomy

Mar. 25, 2014 Rise Set
Actual Time 7:01 AM EDT 7:22 PM EDT
Civil Twilight 6:34 AM EDT 7:49 PM EDT
Nautical Twilight 6:02 AM EDT 8:21 PM EDT
Astronomical Twilight 5:30 AM EDT 8:53 PM EDT
Moon 3:19 AM EDT (3/25) 1:52 PM EDT (3/25)
Length of Visible Light 13h 15m
Length of Day
12h 21m
Waning Crescent, 32% of the Moon is Illuminated
Mar 25
Waning Crescent
Mar 30
New
Apr 7
First Quarter
Apr 15
Full
Apr 22
Last Quarter

Hourly Weather History & Observations

Time (EDT) Temp. Windchill Dew Point Humidity Pressure Visibility Wind Dir Wind Speed Gust Speed Precip Events Conditions
12:09 AM 30.2 °F - 17.6 °F 60% 30.19 in 10.0 mi Calm Calm - N/A   Clear
12:30 AM 30.2 °F - 15.8 °F 55% 30.19 in 10.0 mi Calm Calm - N/A   Clear
12:51 AM 28.4 °F - 17.6 °F 64% 30.18 in 10.0 mi Calm Calm - N/A   Clear
1:09 AM 28.4 °F - 17.6 °F 64% 30.18 in 10.0 mi Calm Calm - N/A   Clear
1:30 AM 30.2 °F - 17.6 °F 60% 30.18 in 10.0 mi Calm Calm - N/A   Clear
1:51 AM 28.4 °F 24.6 °F 17.6 °F 64% 30.17 in 10.0 mi North 3.5 mph - N/A   Clear
2:09 AM 28.4 °F - 17.6 °F 64% 30.17 in 10.0 mi Calm Calm - N/A   Clear
2:30 AM 28.4 °F - 19.4 °F 69% 30.16 in 10.0 mi Calm Calm - N/A   Clear
2:51 AM 28.4 °F - 19.4 °F 69% 30.16 in 10.0 mi Calm Calm - N/A   Clear
3:09 AM 28.4 °F - 21.2 °F 74% 30.16 in 10.0 mi Calm Calm - N/A   Clear
3:30 AM 28.4 °F - 19.4 °F 69% 30.15 in 10.0 mi Calm Calm - N/A   Clear
3:51 AM 26.6 °F - 21.2 °F 80% 30.15 in 10.0 mi Calm Calm - N/A   Clear
4:09 AM 26.6 °F - 21.2 °F 80% 30.14 in 10.0 mi Calm Calm - N/A   Clear
4:30 AM 24.8 °F - 19.4 °F 80% 30.13 in 10.0 mi Calm Calm - N/A   Scattered Clouds
4:51 AM 26.6 °F - 19.4 °F 74% 30.12 in 10.0 mi Calm Calm - N/A   Scattered Clouds
5:09 AM 26.6 °F - 21.2 °F 80% 30.11 in 10.0 mi Calm Calm - N/A   Clear
5:27 AM 26.6 °F - 21.2 °F 80% 30.11 in 10.0 mi Calm Calm - N/A   Scattered Clouds
5:55 AM 24.8 °F - 21.2 °F 86% 30.11 in 10.0 mi Calm Calm - N/A   Mostly Cloudy
6:45 AM 28.4 °F - 21.2 °F 74% 30.11 in 10.0 mi Calm Calm - N/A   Overcast
7:45 AM 28.4 °F - 24.8 °F 86% 30.11 in 10.0 mi Calm Calm - N/A   Overcast
8:45 AM 32.0 °F 27.5 °F 24.8 °F 75% 30.10 in 10.0 mi North 4.6 mph - N/A   Overcast
9:55 AM 37.4 °F 30.8 °F 24.8 °F 60% 30.10 in 10.0 mi ESE 9.2 mph - N/A   Overcast
10:45 AM 37.4 °F 30.8 °F 24.8 °F 60% 30.09 in 10.0 mi ESE 9.2 mph - N/A   Overcast
10:55 AM 37.4 °F - 24.8 °F 60% 30.09 in 10.0 mi North - - N/A   Overcast
11:45 AM 37.4 °F 30.8 °F 24.8 °F 60% 30.09 in 10.0 mi ESE 9.2 mph - N/A   Overcast
11:55 AM 37.4 °F 29.8 °F 26.6 °F 65% 30.06 in 10.0 mi SE 11.5 mph - N/A   Overcast
12:33 PM 37.4 °F 30.3 °F 26.6 °F 65% 30.06 in 2.5 mi SE 10.4 mph 17.3 mph N/A Snow Light Snow
12:45 PM 35.6 °F 29.2 °F 30.2 °F 81% 30.05 in 2.5 mi SE 8.1 mph - N/A Snow Light Snow
1:50 PM 35.6 °F 30.7 °F 32.0 °F 87% 30.01 in 1.2 mi ESE 5.8 mph - N/A Snow Light Snow
2:45 PM 33.8 °F 29.6 °F 33.8 °F 100% 29.94 in 1.0 mi East 4.6 mph - N/A Snow Light Snow
3:45 PM 35.6 °F 31.7 °F 33.8 °F 93% 29.90 in 1.8 mi North 4.6 mph - N/A Snow Light Snow
4:55 PM 35.6 °F 31.7 °F 32.0 °F 87% 29.90 in 2.5 mi East 4.6 mph - N/A Snow Light Snow
5:50 PM 33.8 °F - 32.0 °F 93% 29.90 in 1.8 mi Calm Calm - N/A Snow Light Snow
6:55 PM 33.8 °F - 33.8 °F 100% 29.90 in 1.0 mi Calm Calm - N/A Snow Light Snow
7:55 PM 33.8 °F - 33.8 °F 100% 29.90 in 1.0 mi Calm Calm - N/A Snow Light Snow
8:55 PM 33.8 °F - 33.8 °F 100% 29.91 in 2.0 mi Calm Calm - N/A Snow Light Snow
9:45 PM 33.8 °F - 32.0 °F 93% 29.92 in 4.0 mi Calm Calm - N/A Snow Light Snow
10:12 PM 32.0 °F - 32.0 °F 100% 29.93 in 5.0 mi Calm Calm - N/A   Mostly Cloudy
10:33 PM 32.0 °F - 32.0 °F 100% 29.92 in 5.0 mi Calm Calm - N/A Snow Light Snow
10:51 PM 32.0 °F - 32.0 °F 100% 29.92 in 4.0 mi Calm Calm - N/A Snow Light Snow
11:12 PM 32.0 °F - 32.0 °F 100% 29.92 in 4.0 mi Calm Calm - N/A Snow Light Snow
11:33 PM 32.0 °F - 32.0 °F 100% 29.92 in 5.0 mi Calm Calm - N/A   Mostly Cloudy
11:51 PM 32.0 °F - 32.0 °F 100% 29.92 in 7.0 mi Calm Calm - N/A   Scattered Clouds